Farmville, Virginia, United States (23901)
Lat: 37.30N, Lon: 78.39W
Wx Zone: VAZ060
Local Info
Past Weather Observations for Yesterday

NOTE: This archive is for the closest National Weather Service station to Farmville. Information may differ from the station used for current weather conditions.

Click here for Long-term Archive

Time Weather Temperature Dewpoint Humidity Pressure Winds Precip Visibility
23:55
Overcast
Light Rain
66°F / 19°C 66°F / 19°C 100% 30.04 in
(1017 mb)
Calm - 10SM
23:35
Overcast
Drizzle
68°F / 20°C 66°F / 19°C 94% 30.04 in
(1017 mb)
Calm - 10SM
23:15
Overcast
66°F / 19°C 66°F / 19°C 100% 30.04 in
(1017 mb)
Calm - 10SM
22:55
Overcast
68°F / 20°C 66°F / 19°C 94% 30.04 in
(1017 mb)
Calm - 7SM
22:35
Overcast
66°F / 19°C 66°F / 19°C 100% 30.04 in
(1017 mb)
Calm - 7SM
22:15
Overcast
Fog And Mist
66°F / 19°C 64°F / 18°C 94% 30.04 in
(1017 mb)
NNE 3.5 mph
(NNE 6 kph)
- 5SM
21:55
Overcast
66°F / 19°C 66°F / 19°C 100% 30.04 in
(1017 mb)
Calm - 7SM
21:35
Overcast
66°F / 19°C 66°F / 19°C 100% 30.04 in
(1017 mb)
Calm - 7SM
21:15
Overcast
66°F / 19°C 66°F / 19°C 100% 30.04 in
(1017 mb)
Calm - 7SM
20:55
Overcast
66°F / 19°C 64°F / 18°C 94% 30.04 in
(1017 mb)
Calm - 7SM
20:35
Overcast
66°F / 19°C 66°F / 19°C 100% 30.04 in
(1017 mb)
Calm - 7SM
20:15
Overcast
66°F / 19°C 66°F / 19°C 100% 30.04 in
(1017 mb)
Calm - 10SM
19:55
Overcast
66°F / 19°C 64°F / 18°C 94% 30.04 in
(1017 mb)
NNE 3.5 mph
(NNE 6 kph)
- 7SM
19:35
Overcast
66°F / 19°C 66°F / 19°C 100% 30.01 in
(1016 mb)
Calm - 10SM
19:15
Mostly Cloudy
66°F / 19°C 64°F / 18°C 94% 30.01 in
(1016 mb)
Calm - 10SM
18:55
Partly Cloudy
66°F / 19°C 63°F / 17°C 88% 30.01 in
(1016 mb)
Calm - 10SM
18:35
Mostly Cloudy
68°F / 20°C 61°F / 16°C 78% 30.01 in
(1016 mb)
Calm - 10SM
18:15
Partly Cloudy
70°F / 21°C 61°F / 16°C 73% 30.01 in
(1016 mb)
Calm - 10SM
17:55
Clear
70°F / 21°C 61°F / 16°C 73% 30.01 in
(1016 mb)
Calm - 10SM
17:35
Partly Cloudy
72°F / 22°C 63°F / 17°C 73% 30.01 in
(1016 mb)
Calm - 10SM
17:15
Overcast
73°F / 23°C 61°F / 16°C 65% 29.98 in
(1015 mb)
Calm - 10SM
16:55
Overcast
75°F / 24°C 61°F / 16°C 61% 29.98 in
(1015 mb)
S 5.8 mph
(S 9 kph)
- 10SM
16:35
Mostly Cloudy
75°F / 24°C 61°F / 16°C 61% 29.98 in
(1015 mb)
S 6.9 mph
(S 11 kph)
- 10SM
16:15
Partly Cloudy
77°F / 25°C 61°F / 16°C 57% 29.98 in
(1015 mb)
S 6.9 mph
(S 11 kph)
- 10SM
15:55
Partly Cloudy
79°F / 26°C 61°F / 16°C 54% 29.98 in
(1015 mb)
SE 5.8 mph
(SE 9 kph)
- 10SM
15:35
Partly Cloudy
77°F / 25°C 61°F / 16°C 57% 29.98 in
(1015 mb)
S 4.6 mph
(S 7 kph)
- 10SM
15:15
Mostly Cloudy
79°F / 26°C 61°F / 16°C 54% 29.98 in
(1015 mb)
S 5.8 mph
(S 9 kph)
- 10SM
14:55
Overcast
77°F / 25°C 61°F / 16°C 57% 29.98 in
(1015 mb)
S 4.6 mph
(S 7 kph)
- 10SM
14:35
Overcast
79°F / 26°C 61°F / 16°C 54% 29.98 in
(1015 mb)
S 3.5 mph
(S 6 kph)
- 10SM
14:15
Mostly Cloudy
79°F / 26°C 61°F / 16°C 54% 29.98 in
(1015 mb)
SW 4.6 mph
(SW 7 kph)
- 10SM
13:55
Mostly Cloudy
77°F / 25°C 61°F / 16°C 57% 29.98 in
(1015 mb)
SSE 3.5 mph
(SSE 6 kph)
- 10SM
13:35
Overcast
75°F / 24°C 61°F / 16°C 61% 30.01 in
(1016 mb)
Calm - 10SM
13:15
Partly Cloudy
77°F / 25°C 61°F / 16°C 57% 30.01 in
(1016 mb)
S 5.8 mph
(S 9 kph)
- 10SM
12:55
Clear
75°F / 24°C 61°F / 16°C 61% 30.01 in
(1016 mb)
S 3.5 mph
(S 6 kph)
- 10SM
12:35
Mostly Cloudy
73°F / 23°C 61°F / 16°C 65% 30.01 in
(1016 mb)
SW 3.5 mph
(SW 6 kph)
- 10SM
12:15
Overcast
73°F / 23°C 63°F / 17°C 69% 30.01 in
(1016 mb)
Calm - 10SM
11:55
Overcast
72°F / 22°C 61°F / 16°C 69% 30.01 in
(1016 mb)
Calm - 10SM
11:35
Mostly Cloudy
75°F / 24°C 63°F / 17°C 65% 30.01 in
(1016 mb)
ENE 3.5 mph
(ENE 6 kph)
- 10SM
11:15
Partly Cloudy
73°F / 23°C 63°F / 17°C 69% 30.04 in
(1017 mb)
Calm - 10SM
10:55
Partly Cloudy
72°F / 22°C 63°F / 17°C 73% 30.04 in
(1017 mb)
S 3.5 mph
(S 6 kph)
- 10SM
10:35
Mostly Cloudy
70°F / 21°C 66°F / 19°C 88% 30.04 in
(1017 mb)
S 4.6 mph
(S 7 kph)
- 10SM
10:15
Overcast
68°F / 20°C 66°F / 19°C 94% 30.04 in
(1017 mb)
Calm - 7SM
09:55
Overcast
70°F / 21°C 66°F / 19°C 88% 30.04 in
(1017 mb)
Calm - 7SM
09:35
Overcast
68°F / 20°C 66°F / 19°C 94% 30.04 in
(1017 mb)
Calm - 7SM
09:15
Overcast
66°F / 19°C 66°F / 19°C 100% 30.04 in
(1017 mb)
Calm - 7SM
08:55
Overcast
Fog And Mist
64°F / 18°C 64°F / 18°C 100% 30.01 in
(1016 mb)
Calm - 5SM
08:35
Overcast
Fog And Mist
64°F / 18°C 64°F / 18°C 100% 30.01 in
(1016 mb)
Calm - 5SM
08:15
Overcast
Fog And Mist
64°F / 18°C 63°F / 17°C 94% 30.01 in
(1016 mb)
Calm - 5SM
07:55
Overcast
Fog And Mist
64°F / 18°C 64°F / 18°C 100% 30.01 in
(1016 mb)
Calm - 5SM
07:35
Overcast
Fog And Mist
63°F / 17°C 63°F / 17°C 100% 30.01 in
(1016 mb)
Calm - 4SM
07:15
Overcast
Fog And Mist
63°F / 17°C 63°F / 17°C 100% 29.98 in
(1015 mb)
Calm - 2 1/2SM
06:55
Overcast
Fog And Mist
63°F / 17°C 61°F / 16°C 94% 29.98 in
(1015 mb)
Calm - 2 1/2SM
06:35
Overcast
Fog And Mist
63°F / 17°C 61°F / 16°C 94% 29.98 in
(1015 mb)
Calm - 3SM
06:15
Overcast
Fog And Mist
61°F / 16°C 61°F / 16°C 100% 29.98 in
(1015 mb)
Calm - 4SM
05:55
Overcast
Fog And Mist
61°F / 16°C 61°F / 16°C 100% 29.98 in
(1015 mb)
NNW 3.5 mph
(NNW 6 kph)
- 4SM
05:35
Overcast
Fog And Mist
61°F / 16°C 59°F / 15°C 94% 29.95 in
(1014 mb)
Calm - 3SM
05:15
Overcast
Fog And Mist
61°F / 16°C 59°F / 15°C 94% 29.95 in
(1014 mb)
Calm - 3SM
04:55
Overcast
Fog And Mist
61°F / 16°C 59°F / 15°C 94% 29.95 in
(1014 mb)
Calm - 2 1/2SM
04:35
Overcast
Fog And Mist
59°F / 15°C 59°F / 15°C 100% 29.95 in
(1014 mb)
NNE 3.5 mph
(NNE 6 kph)
- 2SM
04:15
Overcast
Fog And Mist
59°F / 15°C 57°F / 14°C 94% 29.95 in
(1014 mb)
N 3.5 mph
(N 6 kph)
- 2SM
03:55
Overcast
Fog
57°F / 14°C 57°F / 14°C 100% 29.95 in
(1014 mb)
Calm - 1/4SM
03:35
Overcast
Fog
57°F / 14°C 55°F / 13°C 94% 29.95 in
(1014 mb)
Calm - 1/4SM
03:15
Mostly Cloudy
Fog And Mist
59°F / 15°C 57°F / 14°C 94% 29.95 in
(1014 mb)
Calm - 2SM
02:55
Overcast
Fog
59°F / 15°C 59°F / 15°C 100% 29.92 in
(1013 mb)
Calm - 1/2SM
02:35
Overcast
Fog
61°F / 16°C 59°F / 15°C 94% 29.92 in
(1013 mb)
Calm - 1/4SM
02:15
Overcast
Fog And Mist
59°F / 15°C 57°F / 14°C 94% 29.92 in
(1013 mb)
Calm - 3/4SM
01:55
Overcast
Fog And Mist
59°F / 15°C 59°F / 15°C 100% 29.95 in
(1014 mb)
Calm - 1SM
01:35
Partly Cloudy
Fog And Mist
61°F / 16°C 61°F / 16°C 100% 29.95 in
(1014 mb)
Calm - 2 1/2SM
01:15
Mostly Cloudy
Fog And Mist
61°F / 16°C 61°F / 16°C 100% 29.95 in
(1014 mb)
Calm - 2SM
00:55
Mostly Cloudy
Fog And Mist
61°F / 16°C 61°F / 16°C 100% 29.95 in
(1014 mb)
Calm - 1 3/4SM
00:35
Mostly Cloudy
Fog And Mist
63°F / 17°C 63°F / 17°C 100% 29.95 in
(1014 mb)
Calm - 5SM
00:15
Overcast
Fog And Mist
63°F / 17°C 61°F / 16°C 94% 29.95 in
(1014 mb)
NNW 5.8 mph
(NNW 9 kph)
- 5SM
Time Weather Temperature Dewpoint Humidity Pressure Winds Precip Visibility


Weather for websites

WeatherForYou.com, LLC is not responsible for any damages or problems caused by this service. Current weather conditions are obtained from the closest station including government and personal stations which may have varying degrees of accuracy. Weather forecasts are derived from the NOAA NDFD. Like all things, this site belongs to Jesus Christ... He just trusts me to maintain it. If you have any questions or comments email webmaster@weatherforyou.com

Copyright © 2014, WeatherForYou.com LLC. All rights reserved.